Location: Asheville, NC
(35.6000°N, 82.5500°W)
Time: 06:58:50
(UTC-05:00)

Vanguard 1 Rocket - Pass Details

Date: 11 February 2018
Orbit: 655 x 4222 km, 34.3° (Epoch: 18 February)

Event Time Altitude Azimuth Distance (km) Brightness Sun altitude
Rises 21:53:36 0° 194° (SSW) 6,691 11.8 -45.9°
Reaches altitude 10° 21:58:38 10° 184° (S) 6,153 11.4 -46.9°
Enters shadow 22:01:34 16° 176° (S) 5,918 11.3 -47.5°
Maximum altitude 22:15:35 30° 131° (SE) 5,689 - -50.1°
Drops below altitude 10° 22:35:23 10° 82° (E) 7,311 - -53.7°
Sets 22:41:56 0° 73° (ENE) 8,101 - -54.9°
